W3BRL Weather Reports


Display with metric or nautical units.
time (UTC)temp
F
wind
direction
speed
MPH
gust
MPH
rain 1hr
in
rain 24hr
in
rain mn
in
humidity
%
barometer
mb
20260507211415 59 265 8.0 10.0 0.00 0.00 0.00 32 1007.8
20260507210911 59 283 6.0 8.0 0.00 0.00 0.00 33 1007.6
20260507210408 59 175 5.0 8.0 0.00 0.00 0.00 32 1007.5
20260507205905 59 226 8.0 14.0 0.00 0.00 0.00 33 1007.3
20260507205403 59 254 5.0 7.0 0.00 0.00 0.00 32 1007.5
20260507204858 59 292 8.0 10.0 0.00 0.00 0.00 32 1007.5
20260507204355 59 205 3.0 4.0 0.00 0.00 0.00 33 1007.5
20260507203853 59 272 7.0 9.0 0.00 0.00 0.00 32 1007.5
20260507203351 59 206 4.0 7.0 0.00 0.00 0.00 34 1007.4
20260507202846 59 181 7.0 8.0 0.00 0.00 0.00 33 1007.5
20260507202343 59 308 7.0 8.0 0.00 0.00 0.00 33 1007.5
20260507201839 59 204 2.0 2.0 0.00 0.00 0.00 35 1007.7
20260507201334 59 244 4.0 6.0 0.00 0.00 0.00 35 1007.6
20260507200831 59 246 5.0 8.0 0.00 0.00 0.00 34 1007.7
20260507200327 59 243 5.0 8.0 0.00 0.00 0.00 33 1007.8
20260507195823 60 254 6.0 8.0 0.00 0.00 0.00 33 1007.9
20260507195321 60 194 2.0 2.0 0.00 0.00 0.00 34 1007.8
20260507194818 60 341 4.0 6.0 0.00 0.00 0.00 33 1007.9
20260507194314 60 76 4.0 8.0 0.00 0.00 0.00 34 1008.0
20260507193810 59 306 7.0 9.0 0.00 0.00 0.00 35 1008.0
20260507193308 59 214 4.0 6.0 0.00 0.00 0.00 36 1008.0
20260507192803 59 287 4.0 6.0 0.00 0.00 0.00 34 1008.0
20260507192300 59 288 3.0 3.0 0.00 0.00 0.00 36 1007.8
20260507191756 58 178 2.0 3.0 0.00 0.00 0.00 37 1008.1
20260507191253 58 10 3.0 3.0 0.00 0.00 0.00 37 1008.2
20260507190750 58 173 4.0 6.0 0.00 0.00 0.00 37 1008.1
20260507190249 58 240 6.0 8.0 0.00 0.00 0.00 38 1008.0
20260507185747 59 202 5.0 7.0 0.00 0.00 0.00 37 1008.2
20260507185243 59 221 8.0 10.0 0.00 0.00 0.00 37 1008.2
20260507184741 58 195 6.0 8.0 0.00 0.00 0.00 38 1008.2
20260507184239 58 126 4.0 6.0 0.00 0.00 0.00 38 1008.3
20260507183735 58 243 7.0 11.0 0.00 0.00 0.00 37 1008.4
20260507183232 59 165 7.0 10.0 0.00 0.00 0.00 37 1008.5
20260507182730 60 177 7.0 10.0 0.00 0.00 0.00 37 1008.4
20260507182224 57 188 2.0 2.0 0.00 0.00 0.00 41 1008.5
20260507181721 57 270 3.0 4.0 0.00 0.00 0.00 40 1008.3
20260507181218 57 207 1.0 2.0 0.00 0.00 0.00 39 1008.5
20260507180714 57 269 7.0 8.0 0.00 0.00 0.00 39 1008.5
20260507180212 57 137 2.0 4.0 0.00 0.00 0.00 39 1008.8
20260507175707 58 189 4.0 6.0 0.00 0.00 0.00 39 1008.4
20260507175204 57 181 3.0 3.0 0.00 0.00 0.00 38 1008.7
20260507174702 58 242 6.0 8.0 0.00 0.00 0.00 37 1008.7
20260507174159 60 167 2.0 3.0 0.00 0.00 0.00 34 1008.7
20260507173657 59 234 8.0 9.0 0.00 0.00 0.00 35 1008.8
20260507173153 59 227 7.0 10.0 0.00 0.00 0.00 36 1008.9
20260507172650 59 269 10.0 14.0 0.00 0.00 0.00 36 1008.8
20260507172147 60 195 11.0 13.0 0.00 0.00 0.00 34 1009.1
20260507171647 59 182 4.0 7.0 0.00 0.00 0.00 36 1009.1
20260507171144 60 233 4.0 6.0 0.00 0.00 0.00 34 1009.3
20260507170641 59 197 3.0 3.0 0.00 0.00 0.00 38 1009.3
20260507170139 59 195 4.0 8.0 0.00 0.00 0.00 36 1009.2
20260507165634 59 178 1.0 1.0 0.00 0.00 0.00 35 1009.2
20260507165131 57 176 1.0 1.0 0.00 0.00 0.00 38 1009.3
20260507164626 56 196 3.0 4.0 0.00 0.00 0.00 39 1009.4
20260507164124 56 225 4.0 4.0 0.00 0.00 0.00 40 1009.5
20260507163621 57 305 6.0 7.0 0.00 0.00 0.00 39 1009.4
20260507163119 57 346 6.0 8.0 0.00 0.00 0.00 40 1009.6
20260507162614 57 243 7.0 9.0 0.00 0.00 0.00 37 1009.6
20260507162111 57 200 2.0 4.0 0.00 0.00 0.00 38 1009.6
20260507161607 57 112 2.0 2.0 0.00 0.00 0.00 40 1009.4
20260507161104 56 178 3.0 6.0 0.00 0.00 0.00 41 1009.6
20260507160600 56 174 3.0 6.0 0.00 0.00 0.00 40 1009.9
20260507160056 56 217 5.0 6.0 0.00 0.00 0.00 40 1009.7
20260507155551 57 278 4.0 4.0 0.00 0.00 0.00 41 1009.9
20260507155049 57 34 2.0 3.0 0.00 0.00 0.00 42 1009.7
20260507154546 57 261 8.0 9.0 0.00 0.00 0.00 39 1009.9
20260507154043 55 188 7.0 11.0 0.00 0.00 0.00 41 1010.0
20260507153540 56 217 4.0 6.0 0.00 0.00 0.00 41 1009.9
20260507153036 59 296 7.0 9.0 0.00 0.00 0.00 38 1009.9
20260507152532 58 192 1.0 1.0 0.00 0.00 0.00 38 1009.9
20260507152029 56 199 4.0 7.0 0.00 0.00 0.00 40 1010.1
20260507151525 55 163 2.0 3.0 0.00 0.00 0.00 42 1010.2
20260507151022 55 162 1.0 1.0 0.00 0.00 0.00 42 1010.3
20260507150519 53 176 1.0 1.0 0.00 0.00 0.00 44 1010.5
20260507150015 53 319 8.0 10.0 0.00 0.00 0.00 43 1010.3
20260507145510 54 289 7.0 8.0 0.00 0.00 0.00 42 1010.4
20260507145008 54 238 7.0 10.0 0.00 0.00 0.00 43 1010.4
20260507144505 54 253 3.0 4.0 0.00 0.00 0.00 45 1010.7
20260507144002 55 275 6.0 7.0 0.00 0.00 0.00 42 1010.8
20260507143459 55 256 8.0 11.0 0.00 0.00 0.00 42 1010.7
20260507142956 55 179 2.0 3.0 0.00 0.00 0.00 44 1010.8
20260507142451 54 197 5.0 7.0 0.00 0.00 0.00 44 1010.9
20260507141949 55 257 5.0 6.0 0.00 0.00 0.00 44 1011.1
20260507141444 55 197 3.0 4.0 0.00 0.00 0.00 48 1011.2
20260507140942 54 180 4.0 7.0 0.00 0.00 0.00 47 1011.0
20260507140438 54 208 7.0 9.0 0.00 0.00 0.00 49 1011.1
20260507135936 53 188 3.0 4.0 0.00 0.00 0.00 50 1011.2
20260507135433 53 190 5.0 7.0 0.00 0.00 0.00 50 1011.1
20260507134930 53 202 2.0 3.0 0.00 0.00 0.00 49 1011.2
20260507134426 53 197 1.0 2.0 0.00 0.00 0.00 50 1011.2
20260507133922 52 203 6.0 7.0 0.00 0.00 0.00 51 1011.2
20260507133419 52 167 1.0 2.0 0.00 0.00 0.00 51 1011.3
20260507132917 53 192 3.0 3.0 0.00 0.00 0.00 51 1011.4
20260507132413 53 161 4.0 4.0 0.00 0.00 0.00 53 1011.4
20260507131910 52 182 1.0 1.0 0.00 0.00 0.00 53 1011.5
20260507131407 51 165 2.0 2.0 0.00 0.00 0.00 55 1011.4
20260507130904 51 180 4.0 4.0 0.00 0.00 0.00 58 1011.3
20260507130401 51 177 5.0 8.0 0.00 0.00 0.00 58 1011.3
20260507125900 51 206 3.0 4.0 0.00 0.00 0.00 59 1011.4
20260507125356 51 192 3.0 3.0 0.00 0.00 0.00 60 1011.3
20260507124854 51 198 3.0 3.0 0.00 0.00 0.00 61 1011.2
20260507124350 50 182 2.0 3.0 0.00 0.00 0.00 64 1011.3
20260507123849 49 168 2.0 3.0 0.00 0.00 0.00 65 1011.5
20260507123345 49 179 2.0 3.0 0.00 0.00 0.00 67 1011.4
20260507122842 49 150 2.0 3.0 0.00 0.00 0.00 68 1011.5
20260507122337 48 181 2.0 3.0 0.00 0.00 0.00 70 1011.5
20260507121834 47 155 2.0 2.0 0.00 0.00 0.00 72 1011.4
20260507121329 46 168 1.0 2.0 0.00 0.00 0.00 74 1011.3
20260507120826 45 170 2.0 2.0 0.00 0.00 0.00 77 1011.4
20260507120322 45 149 2.0 3.0 0.00 0.00 0.00 79 1011.2
20260507115819 44 160 2.0 2.0 0.00 0.00 0.00 82 1011.4
20260507115314 43 160 2.0 2.0 0.00 0.00 0.00 84 1011.5
20260507114810 42 161 1.0 2.0 0.00 0.00 0.00 85 1011.4
20260507114308 42 160 2.0 2.0 0.00 0.00 0.00 87 1011.4
20260507113805 41 167 2.0 2.0 0.00 0.00 0.00 87 1011.2
20260507113302 41 162 2.0 2.0 0.00 0.00 0.00 88 1011.2
20260507112800 41 165 1.0 1.0 0.00 0.00 0.00 90 1011.1
20260507112256 40 157 2.0 2.0 0.00 0.00 0.00 90 1011.1
20260507111754 39 162 2.0 2.0 0.00 0.00 0.00 91 1011.2
20260507111250 39 164 2.0 2.0 0.00 0.00 0.00 90 1011.1
20260507110747 39 162 0.0 0.0 0.00 0.00 0.00 91 1010.8
20260507110243 39 166 0.0 0.0 0.00 0.00 0.00 91 1011.1
20260507105740 38 166 0.0 0.0 0.00 0.00 0.00 91 1011.1
20260507105236 38 166 0.0 0.0 0.00 0.00 0.00 91 1011.0
20260507104734 38 166 0.0 0.0 0.00 0.00 0.00 92 1010.8
20260507104230 37 166 0.0 0.0 0.00 0.00 0.00 91 1010.7
20260507103726 37 165 0.0 0.0 0.00 0.00 0.00 90 1010.9
20260507103223 38 166 0.0 0.0 0.00 0.00 0.00 89 1010.7
20260507102719 38 163 0.0 0.0 0.00 0.00 0.00 89 1010.6
20260507102216 38 165 0.0 0.0 0.00 0.00 0.00 88 1010.6
20260507101712 37 165 0.0 0.0 0.00 0.00 0.00 89 1010.8
20260507101207 37 165 0.0 0.0 0.00 0.00 0.00 87 1010.8
20260507100705 38 165 0.0 0.0 0.00 0.00 0.00 85 1010.7
20260507100203 38 165 0.0 0.0 0.00 0.00 0.00 85 1010.8
20260507095701 39 165 0.0 0.0 0.00 0.00 0.00 86 1010.8
20260507095157 39 165 0.0 0.0 0.00 0.00 0.00 86 1010.6
20260507094653 39 165 0.0 0.0 0.00 0.00 0.00 88 1010.7
20260507094150 39 164 0.0 0.0 0.00 0.00 0.00 89 1010.4
20260507093648 38 160 0.0 0.0 0.00 0.00 0.00 89 1010.7
20260507093146 38 178 0.0 0.0 0.00 0.00 0.00 88 1010.6
20260507092643 39 178 0.0 0.0 0.00 0.00 0.00 87 1010.7
20260507092139 39 178 0.0 0.0 0.00 0.00 0.00 87 1010.8
20260507091636 39 178 0.0 0.0 0.00 0.00 0.00 87 1011.0
20260507091132 38 178 0.0 0.0 0.00 0.00 0.00 87 1011.0
20260507090628 38 178 0.0 0.0 0.00 0.00 0.00 86 1010.9
20260507090125 38 178 0.0 0.0 0.00 0.00 0.00 85 1011.0
20260507085622 39 178 0.0 0.0 0.00 0.00 0.00 84 1010.9
20260507085119 39 178 0.0 0.0 0.00 0.00 0.00 83 1010.8
20260507084615 40 178 0.0 0.0 0.00 0.00 0.00 82 1010.8
20260507084112 40 178 0.0 0.0 0.00 0.00 0.00 80 1010.8
20260507083609 41 178 0.0 0.0 0.00 0.00 0.00 80 1010.6
20260507083106 41 178 0.0 0.0 0.00 0.00 0.00 79 1010.8
20260507082602 41 178 0.0 0.0 0.00 0.00 0.00 79 1010.9
20260507082058 41 178 0.0 0.0 0.00 0.00 0.00 79 1010.7
20260507081554 40 178 0.0 0.0 0.00 0.00 0.00 80 1010.9
20260507081052 40 178 0.0 0.0 0.00 0.00 0.00 81 1010.7
20260507080548 41 178 0.0 0.0 0.00 0.00 0.00 82 1010.8
20260507080044 41 178 0.0 0.0 0.00 0.00 0.00 83 1010.7
20260507075539 40 178 0.0 0.0 0.00 0.00 0.00 83 1010.6
20260507075036 41 178 0.0 0.0 0.00 0.00 0.00 81 1010.8
20260507074533 41 178 0.0 0.0 0.00 0.00 0.00 79 1010.9
20260507074031 42 178 0.0 0.0 0.00 0.00 0.00 77 1010.9
20260507073527 42 178 0.0 0.0 0.00 0.00 0.00 76 1010.9
20260507073024 43 178 0.0 0.0 0.00 0.00 0.00 74 1011.0
20260507072521 43 178 0.0 0.0 0.00 0.00 0.00 74 1010.8
20260507072018 43 177 0.0 0.0 0.00 0.00 0.00 73 1010.8
20260507071516 43 175 0.0 0.0 0.00 0.00 0.00 72 1010.9
20260507071012 43 176 0.0 0.0 0.00 0.00 0.00 72 1011.0
20260507070509 43 169 0.0 0.0 0.00 0.00 0.00 73 1010.9
20260507070010 43 176 0.0 0.0 0.00 0.00 0.00 72 1011.0
20260507065502 43 174 0.0 0.0 0.00 0.00 0.00 71 1010.9
20260507065000 44 176 0.0 0.0 0.00 0.00 0.00 73 1010.9
20260507064458 44 175 0.0 0.0 0.00 0.00 0.00 76 1011.0
20260507063956 44 175 0.0 0.0 0.00 0.00 0.00 74 1011.0
20260507063452 44 170 0.0 0.0 0.00 0.00 0.00 71 1010.9
20260507062949 45 170 0.0 0.0 0.00 0.00 0.00 71 1010.9
20260507062446 45 170 0.0 0.0 0.00 0.00 0.00 70 1010.9
20260507061944 45 170 0.0 0.0 0.00 0.00 0.00 69 1010.9
20260507061442 46 170 0.0 0.0 0.00 0.00 0.00 68 1011.1
20260507060940 46 172 0.0 0.0 0.00 0.00 0.00 67 1011.1
20260507060436 46 163 0.0 1.0 0.00 0.00 0.00 67 1011.0
20260507055933 46 164 1.0 1.0 0.00 0.00 0.00 66 1011.2
20260507055428 46 153 1.0 1.0 0.00 0.00 0.00 67 1011.3
20260507054926 46 177 0.0 0.0 0.00 0.00 0.00 66 1011.2
20260507054421 46 177 0.0 1.0 0.00 0.00 0.00 66 1011.5
20260507053919 46 163 1.0 1.0 0.00 0.00 0.00 66 1011.5
20260507053416 47 182 1.0 1.0 0.00 0.00 0.00 66 1011.7
20260507052915 47 175 1.0 1.0 0.00 0.00 0.00 64 1011.7
20260507052412 47 194 2.0 2.0 0.00 0.00 0.00 63 1011.9
20260507051909 47 176 0.0 0.0 0.00 0.00 0.00 63 1011.7
20260507051407 47 194 2.0 3.0 0.00 0.00 0.00 63 1011.7
20260507050903 47 181 1.0 1.0 0.00 0.00 0.00 66 1011.6
20260507050400 47 164 1.0 1.0 0.00 0.00 0.00 65 1011.6
20260507045857 47 179 0.0 0.0 0.00 0.00 0.00 63 1011.6
20260507045353 47 177 0.0 0.0 0.00 0.00 0.00 62 1011.5
20260507044851 47 177 0.0 1.0 0.00 0.00 0.00 62 1011.7
20260507044347 47 174 0.0 0.0 0.00 0.00 0.00 64 1011.5
20260507043843 47 172 1.0 1.0 0.00 0.00 0.00 63 1011.5
20260507043340 47 177 1.0 1.0 0.00 0.00 0.00 63 1011.5
20260507042836 48 178 1.0 1.0 0.00 0.00 0.00 63 1011.6
20260507042332 48 183 1.0 1.0 0.00 0.00 0.00 62 1011.5
20260507041829 48 172 1.0 1.0 0.00 0.00 0.00 63 1011.5
20260507041325 48 180 1.0 1.0 0.00 0.00 0.00 64 1011.7
20260507040822 48 182 1.0 2.0 0.00 0.00 0.00 65 1011.6
20260507040319 48 184 1.0 1.0 0.00 0.00 0.00 65 1011.5
20260507035814 48 178 1.0 1.0 0.00 0.72 0.72 65 1011.5
20260507035310 48 171 1.0 1.0 0.00 0.72 0.72 65 1011.3
20260507034808 48 131 2.0 3.0 0.00 0.72 0.72 64 1011.2
20260507034305 48 174 0.0 0.0 0.00 0.72 0.72 64 1011.6
20260507033803 48 175 0.0 0.0 0.00 0.72 0.72 64 1011.5
20260507033301 48 178 0.0 0.0 0.00 0.72 0.72 63 1011.5
20260507032757 48 141 0.0 2.0 0.00 0.72 0.72 64 1011.1
20260507032253 48 188 2.0 2.0 0.00 0.72 0.72 63 1011.3
20260507031750 48 178 2.0 2.0 0.00 0.72 0.72 63 1011.3
20260507031247 48 332 4.0 4.0 0.00 0.72 0.72 64 1010.8
20260507030744 48 96 2.0 3.0 0.00 0.72 0.72 63 1011.1
20260507030241 48 189 2.0 2.0 0.00 0.72 0.72 63 1011.2
20260507025738 48 176 2.0 3.0 0.00 0.72 0.72 63 1010.9
20260507025235 48 178 1.0 1.0 0.00 0.72 0.72 63 1011.0
20260507024733 49 184 1.0 1.0 0.00 0.72 0.72 62 1011.1
20260507024230 49 186 2.0 2.0 0.00 0.72 0.72 62 1010.8
20260507023725 49 175 1.0 1.0 0.00 0.72 0.72 62 1010.8
20260507023223 49 187 1.0 2.0 0.00 0.72 0.72 60 1011.2
20260507022720 49 221 2.0 2.0 0.00 0.72 0.72 60 1010.8
20260507022216 49 183 2.0 3.0 0.00 0.72 0.72 60 1011.0
20260507021712 49 191 1.0 1.0 0.00 0.72 0.72 60 1010.7
20260507021208 49 177 2.0 3.0 0.00 0.72 0.72 59 1010.9
20260507020707 49 201 2.0 3.0 0.00 0.72 0.72 59 1010.8
20260507020202 49 211 4.0 4.0 0.00 0.72 0.72 59 1010.6
20260507015700 50 165 2.0 2.0 0.00 0.72 0.72 59 1010.4
20260507015158 50 97 2.0 2.0 0.00 0.72 0.72 59 1010.5
20260507014654 50 226 3.0 3.0 0.00 0.72 0.72 59 1010.3
20260507014150 50 338 4.0 4.0 0.00 0.72 0.72 59 1010.3
20260507013647 50 146 3.0 4.0 0.00 0.72 0.72 59 1010.2
20260507013144 50 101 2.0 3.0 0.00 0.72 0.72 61 1010.2
20260507012642 50 155 3.0 4.0 0.00 0.72 0.72 60 1010.3
20260507012137 50 13 3.0 3.0 0.00 0.72 0.72 61 1010.2
20260507011635 50 121 3.0 3.0 0.00 0.72 0.72 61 1010.3
20260507011131 50 180 2.0 2.0 0.00 0.72 0.72 61 1010.3
20260507010626 50 198 3.0 3.0 0.00 0.72 0.72 60 1010.3
20260507010122 51 224 2.0 3.0 0.00 0.72 0.72 60 1010.4
20260507005619 51 64 3.0 4.0 0.00 0.72 0.72 60 1010.5
20260507005116 51 105 3.0 4.0 0.00 0.72 0.72 61 1010.5
20260507004613 51 131 2.0 3.0 0.00 0.72 0.72 62 1010.7
20260507004110 51 188 2.0 3.0 0.00 0.72 0.72 62 1010.8
20260507003606 51 220 1.0 2.0 0.00 0.72 0.72 63 1010.7
20260507003101 51 162 3.0 3.0 0.00 0.72 0.72 62 1010.6
20260507002558 51 202 2.0 2.0 0.00 0.72 0.72 62 1010.7
20260507002053 51 284 4.0 6.0 0.00 0.72 0.72 61 1010.9
20260507001551 52 181 2.0 2.0 0.00 0.72 0.72 62 1010.7
20260507001048 52 320 6.0 7.0 0.00 0.72 0.72 62 1010.5
20260507000544 52 340 6.0 8.0 0.00 0.72 0.72 65 1010.3
20260507000039 52 6 3.0 4.0 0.00 0.72 0.72 67 1010.3
20260506235537 52 218 3.0 3.0 0.00 0.72 0.72 66 1010.4
20260506235033 52 193 2.0 2.0 0.00 0.72 0.72 66 1010.2
20260506234531 52 196 2.0 3.0 0.00 0.72 0.72 66 1010.1
20260506234027 53 207 2.0 3.0 0.00 0.72 0.72 68 1010.1
20260506233524 53 141 2.0 2.0 0.00 0.72 0.72 69 1010.0
20260506233021 53 190 3.0 3.0 0.00 0.72 0.72 69 1010.0
20260506232517 53 168 1.0 1.0 0.00 0.72 0.72 70 1009.9
20260506232013 53 177 2.0 2.0 0.00 0.72 0.72 68 1009.7
20260506231511 53 182 1.0 1.0 0.00 0.72 0.72 67 1009.9
20260506231009 53 225 3.0 3.0 0.00 0.72 0.72 68 1009.7
20260506230504 53 200 2.0 2.0 0.00 0.72 0.72 67 1009.4
20260506230002 53 192 1.0 2.0 0.00 0.72 0.72 68 1009.4
20260506225459 53 173 1.0 1.0 0.00 0.72 0.72 69 1009.6
20260506224955 53 203 2.0 2.0 0.00 0.72 0.72 68 1009.6
20260506224452 53 176 1.0 2.0 0.00 0.72 0.72 70 1009.5
20260506223948 53 174 2.0 2.0 0.00 0.72 0.72 69 1009.5
20260506223444 53 189 2.0 2.0 0.00 0.72 0.72 69 1009.3
20260506222942 53 324 5.0 6.0 0.00 0.72 0.72 69 1009.5
20260506222438 53 273 4.0 6.0 0.00 0.72 0.72 68 1009.4
20260506221935 53 199 2.0 2.0 0.00 0.72 0.72 69 1009.4
20260506221432 53 175 0.0 0.0 0.00 0.72 0.72 68 1009.3
20260506220930 54 278 5.0 6.0 0.00 0.72 0.72 68 1009.3
20260506220425 54 170 2.0 2.0 0.00 0.72 0.72 68 1009.2
20260506215922 54 227 3.0 3.0 0.00 0.72 0.72 69 1009.2
20260506215418 54 177 1.0 1.0 0.00 0.72 0.72 68 1009.0
20260506214914 54 176 2.0 2.0 0.00 0.72 0.72 69 1009.0
20260506214411 54 223 3.0 3.0 0.00 0.72 0.72 71 1009.0
20260506213909 53 186 2.0 3.0 0.00 0.72 0.72 71 1009.0
20260506213406 53 259 4.0 4.0 0.00 0.72 0.72 71 1009.1
20260506212903 53 318 8.0 8.0 0.00 0.72 0.72 71 1008.7
20260506212359 53 299 4.0 6.0 0.00 0.72 0.72 70 1008.8
20260506211854 54 331 4.0 4.0 0.00 0.72 0.72 70 1009.1